Regional Weather Roundup
Issued by NWS

Home | Current Version | Previous Version | Text Only | Print | Product List | Glossary Off
Versions: 1 2 3 4 5 6 7 8 9 10 11 12 13 14 15 16 17 18 19 20 21 22 23 24 25 26 27 28 29 30 31 32 33 34 35 36 37 38 39 40 41 42 43 44 45 46 47 48 49 50

000
ASUS43 KMKX 252100
RWRWI

WISCONSIN REGIONAL WEATHER ROUNDUP
NATIONAL WEATHER SERVICE MILWAUKEE/SULLIVAN WI
400 PM CDT SAT OCT 25 2014

NOTE: "FAIR" INDICATES FEW OR NO CLOUDS BELOW 12,000 FEET WITH NO
SIGNIFICANT WEATHER AND/OR OBSTRUCTIONS TO VISIBILITY.

WIZ001-002-006>008-014>016-023>028-252200-
NORTHWEST WISCONSIN

CITY           SKY/WX    TMP DP  RH WIND       PRES   REMARKS
SUPERIOR ARPT  SUNNY     60  26  26 W21G33    29.93R
ASHLAND        SUNNY     60  27  28 W18G25    29.89S
HAYWARD        SUNNY     61  18  18 NW13G22   29.93R
SIREN          SUNNY     62  23  23 NW15G23   29.98R
CUMBERLAND     SUNNY     59  21  23 NW15G26   29.97S
RICE LAKE      SUNNY     61  24  24 W22       29.98S
CHETEK         SUNNY     61  26  25 W14G24    29.96S
LADYSMITH      SUNNY     61  27  27 W16G22    29.94S
EAU CLAIRE     NOT AVBL
MENOMONIE      SUNNY     63  26  24 W20G26    29.99S
NEW RICHMOND   SUNNY     62  25  24 W13G23    30.00F
OSCEOLA        SUNNY     63  26  24 W20G25    30.03S
$$

WIZ003>005-009-010-017-018-252200-
NORTH CENTRAL WISCONSIN

CITY           SKY/WX    TMP DP  RH WIND       PRES   REMARKS
MANITOWISH WTR SUNNY     57  23  26 NW15G33   29.84S
ARBOR VITAE    SUNNY     59  24  26 W18G30    29.84S
WOODRUFF       SUNNY     59  24  26 W18G30    29.84S
RHINELANDER    SUNNY     58  25  28 W20G30    29.85S
EAGLE RIVER    SUNNY     58  19  21 NW18G31   29.82S
LAND O LAKES   SUNNY     58  22  25 W16G31    29.83R
PHILLIPS       SUNNY     58  26  28 W14G26    29.88F
TOMAHAWK       SUNNY     59  24  26 W16G25    29.88R
MEDFORD        SUNNY     58  28  31 NW17G31   29.91S
MERRILL        SUNNY     60  26  27 NW24      29.87S
$$

WIZ029-030-035-036-043>047-252200-
CENTRAL WISCONSIN

CITY           SKY/WX    TMP DP  RH WIND       PRES   REMARKS
WAUSAU         SUNNY     61  25  25 NW22G31   29.87R
MOSINEE        SUNNY     61  28  29 W23G29    29.90R
MARSHFIELD     SUNNY     61  29  29 W18G29    29.92S
STEVENS POINT  SUNNY     59  30  33 W17       29.90R
WAUPACA        SUNNY     65  28  25 W22G29    29.88S
WAUTOMA        NOT AVBL
WISC RAPIDS    SUNNY     63  26  24 W14G24    29.93R
CAMP DOUGLAS   NOT AVBL
$$

WIZ011>013-019>022-031-037>040-048>050-252200-
NORTHEAST WISCONSIN

CITY           SKY/WX    TMP DP  RH WIND       PRES   REMARKS
ANTIGO         SUNNY     58  28  31 W23G29    29.85S
SHAWANO        SUNNY     65  25  21 W14G26    29.83S
OCONTO         SUNNY     64  26  23 NW10G18   29.79S
STURGEON BAY   SUNNY     63  30  29 NW17G24   29.79S
GREEN BAY      SUNNY     65  29  25 W15       29.82R
MANITOWOC      NOT AVBL
APPLETON       SUNNY     63  30  29 W17G23    29.86S
CLINTONVILLE   SUNNY     63  27  25 W20G28    29.84S
OSHKOSH        SUNNY     64  30  27 W20G29    29.86S
$$

WIZ032>034-041-042-053>061-252200-
SOUTHWEST WISCONSIN

CITY           SKY/WX    TMP DP  RH WIND       PRES   REMARKS
LA CROSSE      SUNNY     66  28  24 NW15      29.98S
SPARTA         SUNNY     64  26  23 W14G21    29.98R
VIROQUA        SUNNY     64  28  25 NW18G24   29.99R
BOSCOBEL       SUNNY     69  27  20 W15G23    29.99R
PRAIRIE DU CHI SUNNY     68  26  21 NW17G23   29.99S
PLATTEVILLE    SUNNY     68  29  23 W17G26    30.00R
$$

WIZ056-057-062-063-064-067-068-252200-
SOUTH CENTRAL WISCONSIN

CITY           SKY/WX    TMP DP  RH WIND       PRES   REMARKS
REEDSBURG      SUNNY     64  32  29 W15G24    29.94S
BARABOO/DELLS  SUNNY     65  22  19 NW18G30   29.94R
LONE ROCK      NOT AVBL
MINERAL POINT  SUNNY     68  25  19 W18       29.97S
MADISON        MOSUNNY   68  25  19 NW12G25   29.93S
MIDDLETON      SUNNY     68  20  15 NW14G26   29.93F
WATERTOWN      SUNNY     67  28  23 W18G25    29.89F
MONROE         SUNNY     68  30  24 W23G29    29.96R
JANESVILLE     SUNNY     70  27  19 NW21G26   29.92S
$$

WIZ051-052-058>065-066-070>072-252200-
SOUTHEAST WISCONSIN

CITY           SKY/WX    TMP DP  RH WIND       PRES   REMARKS
MILWAUKEE      MOSUNNY   68  24  19 W18G29    29.88S
WAUKESHA       SUNNY     64  28  25 W18G28    29.90S
MILWAUKEE/TIMM SUNNY     66  18  15 W17G32    29.88S
RACINE         SUNNY     69  27  20 W14G26    29.90S
BURLINGTON     SUNNY     67  28  22 W18G25    29.91R
KENOSHA        SUNNY     69  31  24 W13G23    29.90S
FOND DU LAC    SUNNY     65  30  27 W16       29.87F
SHEBOYGAN      SUNNY     64  30  27 W21G32    29.84F
WEST BEND      SUNNY     64  25  22 W20G28    29.87F
JUNEAU         SUNNY     65  27  23 W12G24    29.91R
$$

LSZ147-162-252200-
LAKE SUPERIOR

STATION/POSITION TIME  TEMP    WIND        PRES    WAVE
                       AIR SEA DIR/SP/G            HT/PER
                 (UTC) (F)     (DEG/KT/KT) (MB)    (FT/S)
W MID LAKE BUOY  1950   49 46  260/ 19/ 23 1008.3R   6/ 6
DEVILS ISLAND    2000   52     250/ 17/ 20 1010.9R
PORT WING        2000   56     250/ 12/ 18 1012.2F
SAXON HARBOR     2020   60     290/ 17     1011.2S
$$

LMZ867-665-643>646-252200-
LAKE MICHIGAN

STATION/POSITION TIME  TEMP    WIND        PRES    WAVE
                       AIR SEA DIR/SP/G            HT/PER
                 (UTC) (F)     (DEG/KT/KT) (MB)    (FT/S)
CHAMBERS ISLAND  2000   63     310/  6/ 17 1008.1R
N MID LAKE BUOY  1950   55 51  280/ 12/ 16 1006.8R   2/ 4
NORTHPORT PIER   2000   60     300/  9/ 19 1007.1R
ALGOMA LAKESHORE 1911          330/ 14/ 23   N/A
KEWAUNEE LAKESHO 2000   64     280/ 15/ 24 1007.9F
SHEBOYGAN LAKESH 2000   64 51  290/ 24/ 29 1010.6F
PORT WASHINGTON  2000   68     300/ 12/ 26 1011.5S
ATWATER BUOY     2000   65     280/ 19/ 29 1012.6S
MILWAUKEE LAKESH 2000   67     280/ 19/ 28   N/A
S MID LAKE BUOY  1950   58 54  250/ 10/ 12 1011.8F   1/ 4
KENOSHA   LAKESH 2000   69     270/ 16/ 24 1012.2R
$$

TC  - TEMPERATURE IN CELSIUS
VSB - VISIBILITY IN STATUTE MILES
WCI - WIND CHILL INDEX
HX  - HEAT INDEX




USA.gov is the U.S. government's official web portal to all federal, state and local government web resources and services.